Time,TemperatureF,DewpointF,PressureIn,WindDirection,WindDirectionDegrees,WindSpeedMPH,WindSpeedGustMPH,Humidity,HourlyPrecipIn,Conditions,Clouds,dailyrainin,SoftwareType,DateUTC
2013-02-24 00:01:00,39.0,35.0,29.92,North,360,0.0,6.0,85,0.00,,,0.02,,2013-02-24 06:01:00,
2013-02-24 00:11:00,39.0,35.0,29.92,North,360,0.0,6.0,85,0.00,,,0.02,,2013-02-24 06:11:00,
2013-02-24 00:21:00,39.0,35.0,29.93,North,360,0.0,0.0,85,0.00,,,0.02,,2013-02-24 06:21:00,
2013-02-24 00:31:00,38.0,34.0,29.92,North,360,2.0,3.0,84,0.00,,,0.02,,2013-02-24 06:31:00,
2013-02-24 00:41:00,38.0,34.0,29.92,North,360,2.0,3.0,84,0.00,,,0.02,,2013-02-24 06:41:00,
2013-02-24 00:52:00,38.0,33.0,29.92,North,360,3.0,5.0,83,0.00,,,0.01,,2013-02-24 06:52:00,
2013-02-24 01:01:00,38.0,33.0,29.92,North,360,0.0,3.0,82,0.00,,,0.01,,2013-02-24 07:01:00,
2013-02-24 01:12:00,38.0,33.0,29.92,North,360,0.0,3.0,82,0.00,,,0.01,,2013-02-24 07:12:00,
2013-02-24 01:21:00,38.0,32.0,29.92,North,360,2.0,5.0,80,0.00,,,0.01,,2013-02-24 07:21:00,
2013-02-24 01:31:00,38.0,32.0,29.93,North,359,3.0,5.0,79,0.00,,,0.01,,2013-02-24 07:31:00,
2013-02-24 01:41:00,38.0,32.0,29.93,North,359,3.0,5.0,79,0.00,,,0.01,,2013-02-24 07:41:00,
2013-02-24 01:52:00,38.0,32.0,29.93,North,359,3.0,5.0,79,0.00,,,0.01,,2013-02-24 07:52:00,
2013-02-24 02:01:00,37.0,31.0,29.92,North,11,5.0,7.0,80,0.00,,,0.01,,2013-02-24 08:01:00,
2013-02-24 02:11:00,37.0,31.0,29.93,North,4,4.0,6.0,80,0.00,,,0.01,,2013-02-24 08:11:00,
2013-02-24 02:22:00,37.0,31.0,29.93,North,4,4.0,6.0,80,0.00,,,0.01,,2013-02-24 08:22:00,
2013-02-24 02:31:00,37.0,31.0,29.92,NNE,14,5.0,6.0,80,0.00,,,0.01,,2013-02-24 08:31:00,
2013-02-24 02:42:00,37.0,31.0,29.92,NNE,14,5.0,6.0,80,0.00,,,0.01,,2013-02-24 08:42:00,
2013-02-24 02:54:00,36.0,31.0,29.92,NNE,20,5.0,7.0,82,0.00,,,0.00,,2013-02-24 08:54:00,
2013-02-24 03:01:00,36.0,31.0,29.93,NNE,21,1.0,5.0,82,0.00,,,0.00,,2013-02-24 09:01:00,
2013-02-24 03:11:00,36.0,31.0,29.93,NNE,21,1.0,5.0,82,0.00,,,0.00,,2013-02-24 09:11:00,
2013-02-24 03:21:00,36.0,31.0,29.93,NNE,20,2.0,3.0,82,0.00,,,0.00,,2013-02-24 09:21:00,
2013-02-24 03:31:00,36.0,31.0,29.93,NNE,20,3.0,5.0,81,0.00,,,0.00,,2013-02-24 09:31:00,
2013-02-24 03:41:00,36.0,31.0,29.93,NNE,20,3.0,5.0,81,0.00,,,0.00,,2013-02-24 09:41:00,
2013-02-24 03:52:00,36.0,30.0,29.93,NNE,14,6.0,7.0,80,0.00,,,0.00,,2013-02-24 09:52:00,
2013-02-24 04:01:00,36.0,30.0,29.93,North,7,4.0,7.0,80,0.00,,,0.00,,2013-02-24 10:01:00,
2013-02-24 04:11:00,35.0,30.0,29.94,North,3,6.0,7.0,81,0.00,,,0.00,,2013-02-24 10:11:00,
2013-02-24 04:21:00,35.0,30.0,29.94,North,3,6.0,7.0,81,0.00,,,0.00,,2013-02-24 10:21:00,
2013-02-24 04:31:00,35.0,30.0,29.94,North,6,5.0,6.0,82,0.00,,,0.00,,2013-02-24 10:31:00,
2013-02-24 04:41:00,35.0,30.0,29.94,North,6,5.0,6.0,82,0.00,,,0.00,,2013-02-24 10:41:00,
2013-02-24 04:52:00,35.0,30.0,29.94,North,3,5.0,7.0,82,0.00,,,0.00,,2013-02-24 10:52:00,
2013-02-24 05:01:00,35.0,30.0,29.95,North,4,5.0,8.0,82,0.00,,,0.00,,2013-02-24 11:01:00,
2013-02-24 05:11:00,35.0,30.0,29.95,North,4,5.0,8.0,82,0.00,,,0.00,,2013-02-24 11:11:00,
2013-02-24 05:21:00,34.0,29.0,29.95,NNE,17,6.0,8.0,82,0.00,,,0.00,,2013-02-24 11:21:00,
2013-02-24 05:32:00,34.0,29.0,29.96,NNE,20,6.0,7.0,83,0.00,,,0.00,,2013-02-24 11:32:00,
2013-02-24 05:41:00,34.0,29.0,29.96,NNE,20,6.0,7.0,83,0.00,,,0.00,,2013-02-24 11:41:00,
2013-02-24 05:53:00,34.0,29.0,29.96,North,356,7.0,10.0,83,0.00,,,0.00,,2013-02-24 11:53:00,
2013-02-24 06:01:00,34.0,29.0,29.96,North,7,7.0,11.0,82,0.00,,,0.00,,2013-02-24 12:01:00,
2013-02-24 06:11:00,34.0,29.0,29.96,North,7,7.0,11.0,82,0.00,,,0.00,,2013-02-24 12:11:00,
2013-02-24 06:21:00,34.0,29.0,29.97,NNE,17,9.0,13.0,82,0.00,,,0.00,,2013-02-24 12:21:00,
2013-02-24 06:32:00,34.0,29.0,29.97,NNE,24,9.0,14.0,82,0.00,,,0.00,,2013-02-24 12:32:00,
2013-02-24 06:46:00,34.0,29.0,29.97,NNE,24,9.0,14.0,82,0.00,,,0.00,,2013-02-24 12:46:00,
2013-02-24 06:56:00,34.0,29.0,29.97,North,6,9.0,12.0,82,0.00,,,0.00,,2013-02-24 12:56:00,
2013-02-24 07:09:00,34.0,29.0,29.98,North,11,11.0,14.0,81,0.00,,,0.00,,2013-02-24 13:09:00,
2013-02-24 07:16:00,35.0,29.0,29.99,NNE,14,7.0,12.0,80,0.00,,,0.00,,2013-02-24 13:16:00,
2013-02-24 07:26:00,35.0,29.0,29.99,NNE,14,7.0,12.0,80,0.00,,,0.00,,2013-02-24 13:26:00,
2013-02-24 07:33:00,35.0,29.0,30.00,NNE,24,8.0,10.0,80,0.00,,,0.00,,2013-02-24 13:33:00,
2013-02-24 07:43:00,35.0,29.0,30.00,NNE,24,8.0,10.0,80,0.00,,,0.00,,2013-02-24 13:43:00,
2013-02-24 07:54:00,36.0,30.0,30.01,NNE,18,6.0,9.0,78,0.00,,,0.00,,2013-02-24 13:54:00,
2013-02-24 08:03:00,37.0,30.0,30.01,NE,44,9.0,12.0,75,0.00,,,0.00,,2013-02-24 14:03:00,
2013-02-24 08:13:00,39.0,30.0,30.01,NNE,32,7.0,12.0,71,0.00,,,0.00,,2013-02-24 14:13:00,
2013-02-24 08:23:00,39.0,30.0,30.01,NNE,32,7.0,12.0,71,0.00,,,0.00,,2013-02-24 14:23:00,
2013-02-24 08:33:00,40.0,30.0,30.02,NNE,27,9.0,13.0,67,0.00,,,0.00,,2013-02-24 14:33:00,
2013-02-24 08:43:00,40.0,30.0,30.02,NNE,27,9.0,13.0,67,0.00,,,0.00,,2013-02-24 14:43:00,
2013-02-24 08:54:00,41.0,30.0,30.02,NNE,28,9.0,13.0,65,0.00,,,0.00,,2013-02-24 14:54:00,
2013-02-24 09:02:00,43.0,31.0,30.02,NE,45,8.0,11.0,63,0.00,,,0.00,,2013-02-24 15:02:00,
2013-02-24 09:13:00,44.0,31.0,30.02,NE,37,6.0,11.0,59,0.00,,,0.00,,2013-02-24 15:13:00,
2013-02-24 09:22:00,44.0,31.0,30.02,NE,37,6.0,11.0,59,0.00,,,0.00,,2013-02-24 15:22:00,
2013-02-24 09:32:00,45.0,30.0,30.03,NE,48,6.0,12.0,56,0.00,,,0.00,,2013-02-24 15:32:00,
2013-02-24 09:42:00,45.0,30.0,30.03,NE,48,6.0,12.0,56,0.00,,,0.00,,2013-02-24 15:42:00,
2013-02-24 09:53:00,46.0,31.0,30.03,North,360,5.0,8.0,55,0.00,,,0.00,,2013-02-24 15:53:00,
2013-02-24 10:01:00,46.0,31.0,30.04,NNE,28,6.0,11.0,55,0.00,,,0.00,,2013-02-24 16:01:00,
2013-02-24 10:11:00,46.0,29.0,30.03,NNE,25,9.0,12.0,52,0.00,,,0.00,,2013-02-24 16:11:00,
2013-02-24 10:21:00,46.0,29.0,30.03,NNE,25,9.0,12.0,52,0.00,,,0.00,,2013-02-24 16:21:00,
2013-02-24 10:31:00,46.0,31.0,30.04,NNE,27,3.0,11.0,55,0.00,,,0.00,,2013-02-24 16:31:00,
2013-02-24 10:41:00,46.0,31.0,30.04,NNE,27,3.0,11.0,55,0.00,,,0.00,,2013-02-24 16:41:00,
2013-02-24 10:52:00,48.0,31.0,30.03,NNE,17,6.0,10.0,52,0.00,,,0.00,,2013-02-24 16:52:00,
2013-02-24 11:01:00,48.0,30.0,30.03,NNE,17,3.0,12.0,49,0.00,,,0.00,,2013-02-24 17:01:00,
2013-02-24 11:11:00,48.0,30.0,30.03,NNE,17,3.0,12.0,49,0.00,,,0.00,,2013-02-24 17:11:00,
2013-02-24 11:21:00,50.0,31.0,30.03,North,360,6.0,12.0,48,0.00,,,0.00,,2013-02-24 17:21:00,
2013-02-24 11:32:00,49.0,30.0,30.03,North,10,5.0,14.0,47,0.00,,,0.00,,2013-02-24 17:32:00,
2013-02-24 11:41:00,49.0,30.0,30.03,North,10,5.0,14.0,47,0.00,,,0.00,,2013-02-24 17:41:00,
2013-02-24 11:52:00,50.0,31.0,30.03,NNE,21,7.0,12.0,48,0.00,,,0.00,,2013-02-24 17:52:00,
2013-02-24 12:01:00,51.0,31.0,30.02,North,357,6.0,13.0,46,0.00,,,0.00,,2013-02-24 18:01:00,
2013-02-24 12:11:00,51.0,31.0,30.02,North,357,6.0,13.0,46,0.00,,,0.00,,2013-02-24 18:11:00,
2013-02-24 12:22:00,52.0,31.0,30.02,NE,55,6.0,14.0,45,0.00,,,0.00,,2013-02-24 18:22:00,
2013-02-24 12:31:00,53.0,33.0,30.01,North,8,5.0,11.0,46,0.00,,,0.00,,2013-02-24 18:31:00,
2013-02-24 12:42:00,53.0,33.0,30.01,North,8,5.0,11.0,46,0.00,,,0.00,,2013-02-24 18:42:00,
2013-02-24 12:52:00,54.0,33.0,30.01,NNE,32,8.0,11.0,44,0.00,,,0.00,,2013-02-24 18:52:00,
2013-02-24 13:01:00,54.0,31.0,30.00,NNE,18,9.0,13.0,42,0.00,,,0.00,,2013-02-24 19:01:00,
2013-02-24 13:11:00,54.0,31.0,30.00,NNE,18,9.0,13.0,42,0.00,,,0.00,,2013-02-24 19:11:00,
2013-02-24 13:22:00,55.0,32.0,30.00,NNE,20,4.0,11.0,42,0.00,,,0.00,,2013-02-24 19:22:00,
2013-02-24 13:32:00,55.0,32.0,29.99,NE,42,1.0,12.0,41,0.00,,,0.00,,2013-02-24 19:32:00,
2013-02-24 13:41:00,55.0,32.0,29.99,NE,42,1.0,12.0,41,0.00,,,0.00,,2013-02-24 19:41:00,
2013-02-24 13:52:00,55.0,33.0,29.98,North,10,1.0,8.0,43,0.00,,,0.00,,2013-02-24 19:52:00,
2013-02-24 14:02:00,55.0,32.0,29.98,NW,306,2.0,7.0,41,0.00,,,0.00,,2013-02-24 20:02:00,
2013-02-24 14:11:00,55.0,32.0,29.98,NW,306,2.0,7.0,41,0.00,,,0.00,,2013-02-24 20:11:00,
2013-02-24 14:21:00,56.0,31.0,29.98,North,4,5.0,10.0,39,0.00,,,0.00,,2013-02-24 20:21:00,
2013-02-24 14:31:00,56.0,32.0,29.97,NNE,13,5.0,9.0,40,0.00,,,0.00,,2013-02-24 20:31:00,
2013-02-24 14:41:00,56.0,30.0,29.97,North,352,7.0,10.0,37,0.00,,,0.00,,2013-02-24 20:41:00,
2013-02-24 14:52:00,56.0,30.0,29.97,North,352,7.0,10.0,37,0.00,,,0.00,,2013-02-24 20:52:00,
2013-02-24 15:01:00,57.0,30.0,29.96,North,6,7.0,11.0,35,0.00,,,0.00,,2013-02-24 21:01:00,
2013-02-24 15:11:00,57.0,30.0,29.96,North,6,7.0,11.0,35,0.00,,,0.00,,2013-02-24 21:11:00,
2013-02-24 15:21:00,57.0,30.0,29.96,NNE,31,7.0,11.0,36,0.00,,,0.00,,2013-02-24 21:21:00,
2013-02-24 15:32:00,57.0,29.0,29.96,NNE,20,6.0,10.0,34,0.00,,,0.00,,2013-02-24 21:32:00,
2013-02-24 15:41:00,57.0,29.0,29.96,NNE,20,6.0,10.0,34,0.00,,,0.00,,2013-02-24 21:41:00,
2013-02-24 15:52:00,57.0,30.0,29.96,NNE,13,5.0,14.0,35,0.00,,,0.00,,2013-02-24 21:52:00,
2013-02-24 16:01:00,57.0,29.0,29.96,NE,41,10.0,13.0,34,0.00,,,0.00,,2013-02-24 22:01:00,
2013-02-24 16:11:00,57.0,29.0,29.96,NE,41,10.0,13.0,34,0.00,,,0.00,,2013-02-24 22:11:00,
2013-02-24 16:21:00,57.0,30.0,29.95,North,7,6.0,11.0,36,0.00,,,0.00,,2013-02-24 22:21:00,
2013-02-24 16:31:00,58.0,30.0,29.96,NE,42,4.0,11.0,34,0.00,,,0.00,,2013-02-24 22:31:00,
2013-02-24 16:41:00,58.0,30.0,29.96,NE,42,4.0,11.0,34,0.00,,,0.00,,2013-02-24 22:41:00,
2013-02-24 16:52:00,57.0,30.0,29.96,North,360,3.0,11.0,36,0.00,,,0.00,,2013-02-24 22:52:00,
2013-02-24 17:02:00,57.0,30.0,29.96,NNE,24,7.0,10.0,35,0.00,,,0.00,,2013-02-24 23:02:00,
2013-02-24 17:11:00,57.0,30.0,29.96,NNE,24,7.0,10.0,35,0.00,,,0.00,,2013-02-24 23:11:00,
2013-02-24 17:21:00,56.0,31.0,29.96,NNE,17,4.0,8.0,38,0.00,,,0.00,,2013-02-24 23:21:00,
2013-02-24 17:31:00,56.0,32.0,29.96,NE,56,3.0,6.0,40,0.00,,,0.00,,2013-02-24 23:31:00,
2013-02-24 17:41:00,56.0,32.0,29.96,NE,56,3.0,6.0,40,0.00,,,0.00,,2013-02-24 23:41:00,
2013-02-24 17:52:00,55.0,31.0,29.96,NE,54,4.0,8.0,40,0.00,,,0.00,,2013-02-24 23:52:00,
2013-02-24 18:01:00,53.0,32.0,29.96,NE,51,0.0,5.0,44,0.00,,,0.00,,2013-02-25 00:01:00,
2013-02-24 18:11:00,53.0,32.0,29.96,NE,51,0.0,5.0,44,0.00,,,0.00,,2013-02-25 00:11:00,
2013-02-24 18:21:00,52.0,31.0,29.96,NE,41,3.0,6.0,44,0.00,,,0.00,,2013-02-25 00:21:00,
2013-02-24 18:31:00,51.0,31.0,29.96,NE,41,3.0,5.0,47,0.00,,,0.00,,2013-02-25 00:31:00,
2013-02-24 18:42:00,51.0,31.0,29.96,NE,41,3.0,5.0,47,0.00,,,0.00,,2013-02-25 00:42:00,
2013-02-24 18:52:00,49.0,34.0,29.96,NE,41,2.0,3.0,56,0.00,,,0.00,,2013-02-25 00:52:00,
2013-02-24 19:01:00,48.0,33.0,29.96,NE,40,3.0,6.0,55,0.00,,,0.00,,2013-02-25 01:01:00,
2013-02-24 19:11:00,46.0,34.0,29.96,NE,38,5.0,6.0,63,0.00,,,0.00,,2013-02-25 01:11:00,
2013-02-24 19:21:00,46.0,34.0,29.96,NE,38,5.0,6.0,63,0.00,,,0.00,,2013-02-25 01:21:00,
2013-02-24 19:31:00,46.0,33.0,29.96,NE,35,5.0,6.0,60,0.00,,,0.00,,2013-02-25 01:31:00,
2013-02-24 19:42:00,46.0,33.0,29.96,NE,35,5.0,6.0,60,0.00,,,0.00,,2013-02-25 01:42:00,
2013-02-24 19:52:00,46.0,32.0,29.96,NE,41,5.0,7.0,57,0.00,,,0.00,,2013-02-25 01:52:00,
2013-02-24 20:01:00,46.0,28.0,29.96,ENE,64,5.0,8.0,50,0.00,,,0.00,,2013-02-25 02:01:00,
2013-02-24 20:11:00,48.0,28.0,29.96,ENE,61,6.0,11.0,45,0.00,,,0.00,,2013-02-25 02:11:00,
2013-02-24 20:21:00,48.0,28.0,29.96,ENE,61,6.0,11.0,45,0.00,,,0.00,,2013-02-25 02:21:00,
2013-02-24 20:31:00,48.0,27.0,29.95,ENE,64,7.0,11.0,43,0.00,,,0.00,,2013-02-25 02:31:00,
2013-02-24 20:41:00,48.0,27.0,29.95,ENE,64,7.0,11.0,43,0.00,,,0.00,,2013-02-25 02:41:00,
2013-02-24 20:52:00,47.0,28.0,29.95,NE,35,6.0,10.0,48,0.00,,,0.00,,2013-02-25 02:52:00,
2013-02-24 21:01:00,45.0,30.0,29.95,NNE,30,4.0,6.0,55,0.00,,,0.00,,2013-02-25 03:01:00,
2013-02-24 21:11:00,45.0,30.0,29.95,NNE,30,4.0,6.0,55,0.00,,,0.00,,2013-02-25 03:11:00,
2013-02-24 21:21:00,44.0,29.0,29.95,NNE,21,6.0,7.0,55,0.00,,,0.00,,2013-02-25 03:21:00,
2013-02-24 21:31:00,44.0,28.0,29.95,North,11,1.0,5.0,53,0.00,,,0.00,,2013-02-25 03:31:00,
2013-02-24 21:41:00,44.0,28.0,29.95,North,11,1.0,5.0,53,0.00,,,0.00,,2013-02-25 03:41:00,
2013-02-24 21:52:00,44.0,28.0,29.94,North,10,3.0,5.0,53,0.00,,,0.00,,2013-02-25 03:52:00,
2013-02-24 22:01:00,45.0,27.0,29.95,North,10,4.0,5.0,50,0.00,,,0.00,,2013-02-25 04:01:00,
2013-02-24 22:11:00,45.0,27.0,29.95,North,10,4.0,5.0,50,0.00,,,0.00,,2013-02-25 04:11:00,
2013-02-24 22:21:00,44.0,29.0,29.95,North,10,3.0,6.0,56,0.00,,,0.00,,2013-02-25 04:21:00,
2013-02-24 22:31:00,43.0,28.0,29.94,NNE,25,3.0,6.0,56,0.00,,,0.00,,2013-02-25 04:31:00,
2013-02-24 22:41:00,43.0,28.0,29.94,NNE,25,3.0,6.0,56,0.00,,,0.00,,2013-02-25 04:41:00,
2013-02-24 22:52:00,42.0,29.0,29.92,NNE,25,6.0,7.0,60,0.00,,,0.00,,2013-02-25 04:52:00,
2013-02-24 23:01:00,42.0,27.0,29.91,North,4,1.0,5.0,56,0.00,,,0.00,,2013-02-25 05:01:00,
2013-02-24 23:11:00,42.0,27.0,29.91,North,4,1.0,5.0,56,0.00,,,0.00,,2013-02-25 05:11:00,
2013-02-24 23:22:00,42.0,27.0,29.92,North,3,0.0,3.0,56,0.00,,,0.00,,2013-02-25 05:22:00,
2013-02-24 23:31:00,42.0,28.0,29.91,North,3,2.0,3.0,58,0.00,,,0.00,,2013-02-25 05:31:00,
2013-02-24 23:41:00,42.0,28.0,29.91,North,3,2.0,3.0,58,0.00,,,0.00,,2013-02-25 05:41:00,
2013-02-24 23:52:00,42.0,27.0,29.92,North,359,2.0,5.0,56,0.00,,,0.00,,2013-02-25 05:52:00,